Sterling, IL

6:24 PM CDT on May 28, 2017 (GMT -0500)
Whiteside County-Bittorf

Weather History for KSQI - March, 2013

Change the Weather History Date:

Tuesday, March 5, 2013

  Actual Average Record
Temperature  
Mean Temperature 30 °F -  
Max Temperature 33 °F 36 °F 64 °F (2009)
Min Temperature 26 °F 21 °F -2 °F (2015)
Degree Days  
Heating Degree Days 36    
Moisture  
Dew Point 27 °F    
Average Humidity 87    
Maximum Humidity 93    
Minimum Humidity 80    
Precipitation  
Precipitation 0.14 in - - ()
Sea Level Pressure  
Sea Level Pressure 29.91 in    
Wind  
Wind Speed 12 mph (North)    
Max Wind Speed 17 mph    
Max Gust Speed 22 mph    
Visibility 4 miles    
Events      
Averages and records for this station are not official NWS values.
T = Trace of Precipitation, MM = Missing Value Source: NWS Daily Summary

Daily Weather History Graph

Daily Weather History Graph

Search for Another Location

Airport or City:

Trip Planner

Search our weather history database for the weather conditions in past years. The results will help you decide how hot, cold, wet, or windy it might be!

Date:

Astronomy

Mar. 05, 2013 Rise Set
Actual Time 6:26 AM CST 5:54 PM CST
Civil Twilight 5:58 AM CST 6:21 PM CST
Nautical Twilight 5:26 AM CST 6:54 PM CST
Astronomical Twilight 4:54 AM CST 7:26 PM CST
Moon 1:42 AM CST (3/5) 11:29 AM CST (3/5)
Length of Visible Light 12h 23m
Length of Day
11h 27m
Last Quarter, 40% of the Moon is Illuminated
Mar 5
Last Quarter
Mar 11
New
Mar 19
First Quarter
Mar 27
Full
Apr 2
Last Quarter

Hourly Weather History & Observations

Time (CST) Temp. Windchill Dew Point Humidity Pressure Visibility Wind Dir Wind Speed Gust Speed Precip Events Conditions
12:15 AM 30.2 °F 19.8 °F 24.8 °F 80% 29.94 in 10.0 mi ENE 13.8 mph - N/A   Overcast
12:36 AM 30.2 °F 18.9 °F 24.8 °F 80% 29.94 in 10.0 mi ENE 16.1 mph - N/A   Overcast
1:35 AM 30.2 °F 19.8 °F 24.8 °F 80% 29.93 in 10.0 mi East 13.8 mph - N/A   Overcast
1:55 AM 30.2 °F 20.8 °F 26.6 °F 86% 29.92 in 10.0 mi East 11.5 mph - N/A   Overcast
2:15 AM 30.2 °F 19.8 °F 26.6 °F 86% 29.91 in 10.0 mi ENE 13.8 mph - N/A   Overcast
2:35 AM 30.2 °F 19.8 °F 26.6 °F 86% 29.90 in 10.0 mi ENE 13.8 mph - N/A   Overcast
2:55 AM 30.2 °F 19.8 °F 26.6 °F 86% 29.90 in 10.0 mi ENE 13.8 mph - N/A   Overcast
3:15 AM 30.2 °F 19.8 °F 26.6 °F 86% 29.89 in 10.0 mi ENE 13.8 mph - N/A   Overcast
3:35 AM 30.2 °F 18.5 °F 26.6 °F 86% 29.88 in 10.0 mi East 17.3 mph - N/A   Overcast
3:55 AM 30.2 °F 19.3 °F 26.6 °F 86% 29.88 in 2.0 mi East 15.0 mph - N/A   Overcast
4:15 AM 30.2 °F 19.8 °F 26.6 °F 86% 29.89 in 2.0 mi East 13.8 mph - N/A   Overcast
4:35 AM 30.2 °F 21.3 °F 26.6 °F 86% 29.89 in 1.2 mi East 10.4 mph - N/A   Overcast
4:55 AM 30.2 °F 21.9 °F 26.6 °F 86% 29.88 in 1.0 mi ENE 9.2 mph - N/A   Overcast
5:15 AM 30.2 °F 21.3 °F 26.6 °F 86% 29.87 in 1.2 mi ENE 10.4 mph - N/A   Overcast
5:35 AM 30.2 °F 21.3 °F 26.6 °F 86% 29.87 in 1.8 mi ENE 10.4 mph - N/A   Overcast
6:15 AM 30.2 °F 22.6 °F 26.6 °F 86% 29.89 in 0.5 mi ENE 8.1 mph - N/A   Overcast
6:35 AM 30.2 °F 23.4 °F 28.4 °F 93% 29.88 in 0.2 mi NE 6.9 mph - N/A   Overcast
7:35 AM 30.2 °F 26.7 °F 28.4 °F 93% 29.88 in 0.5 mi North 3.5 mph - N/A   Overcast
7:55 AM 30.2 °F 25.4 °F 28.4 °F 93% 29.88 in 0.8 mi North 4.6 mph - N/A   Overcast
8:15 AM 30.2 °F 25.4 °F 28.4 °F 93% 29.88 in 0.5 mi NNE 4.6 mph - N/A   Overcast
8:35 AM 30.2 °F 25.4 °F 28.4 °F 93% 29.87 in 0.5 mi NNE 4.6 mph - N/A   Overcast
8:55 AM 30.2 °F 23.4 °F 28.4 °F 93% 29.87 in 0.8 mi North 6.9 mph - N/A   Overcast
9:35 AM 32.0 °F 26.4 °F 28.4 °F 87% 29.86 in 0.5 mi North 5.8 mph - N/A   Overcast
10:15 AM 32.0 °F 26.4 °F 28.4 °F 87% 29.85 in 0.5 mi NNE 5.8 mph - N/A   Overcast
10:35 AM 32.0 °F 27.5 °F 30.2 °F 93% 29.84 in 0.5 mi North 4.6 mph - N/A   Overcast
10:55 AM 32.0 °F 27.5 °F 28.4 °F 87% 29.84 in 1.0 mi North 4.6 mph - N/A   Overcast
11:15 AM 33.8 °F 29.6 °F 30.2 °F 87% 29.84 in 0.5 mi NNW 4.6 mph - N/A   Overcast
11:35 AM 33.8 °F 29.6 °F 30.2 °F 87% 29.84 in 0.5 mi NNW 4.6 mph - N/A   Overcast
11:56 AM 33.8 °F 27.7 °F 30.2 °F 87% 29.84 in 0.5 mi NNW 6.9 mph - N/A   Overcast
12:35 PM 33.8 °F 28.6 °F 30.2 °F 87% 29.84 in 0.5 mi NNW 5.8 mph - N/A   Overcast
12:55 PM 33.8 °F 28.6 °F 30.2 °F 87% 29.83 in 0.8 mi NNW 5.8 mph - N/A   Overcast
1:15 PM 32.0 °F 24.2 °F 30.2 °F 93% 29.83 in 0.8 mi NW 9.2 mph - N/A   Overcast
1:35 PM 32.0 °F 24.2 °F 28.4 °F 87% 29.83 in 0.8 mi NW 9.2 mph - N/A   Overcast
1:55 PM 32.0 °F 23.6 °F 28.4 °F 87% 29.83 in 0.8 mi NW 10.4 mph - 0.01 in   Overcast
2:15 PM 32.0 °F 23.6 °F 28.4 °F 87% 29.83 in 0.8 mi NW 10.4 mph - 0.02 in   Overcast
2:35 PM 32.0 °F 23.0 °F 30.2 °F 93% 29.83 in 0.8 mi NW 11.5 mph - 0.03 in   Overcast
2:55 PM 32.0 °F 24.2 °F 30.2 °F 93% 29.84 in 1.0 mi NW 9.2 mph - 0.04 in   Overcast
3:15 PM 32.0 °F 23.0 °F 30.2 °F 93% 29.84 in 1.0 mi NW 11.5 mph - 0.02 in   Overcast
3:35 PM 32.0 °F 22.5 °F 30.2 °F 93% 29.85 in 1.0 mi NW 12.7 mph - 0.03 in   Overcast
3:55 PM 32.0 °F 23.0 °F 30.2 °F 93% 29.86 in 1.0 mi NNW 11.5 mph 16.1 mph 0.04 in   Overcast
4:15 PM 32.0 °F 23.6 °F 28.4 °F 87% 29.86 in 1.0 mi North 10.4 mph 16.1 mph 0.01 in   Overcast
4:55 PM 30.2 °F 19.8 °F 28.4 °F 93% 29.88 in 1.2 mi North 13.8 mph - 0.03 in   Overcast
5:15 PM 30.2 °F 19.3 °F 26.6 °F 86% 29.90 in 1.5 mi North 15.0 mph 19.6 mph N/A   Overcast
5:35 PM 30.2 °F 19.3 °F 26.6 °F 86% 29.91 in 1.5 mi North 15.0 mph 20.7 mph N/A   Overcast
5:55 PM 30.2 °F 20.2 °F 26.6 °F 86% 29.93 in 2.0 mi North 12.7 mph 20.7 mph 0.01 in   Overcast
6:15 PM 30.2 °F 19.8 °F 26.6 °F 86% 29.94 in 3.0 mi North 13.8 mph 20.7 mph N/A   Overcast
6:35 PM 28.4 °F 18.0 °F 26.6 °F 93% 29.95 in 4.0 mi North 12.7 mph 18.4 mph N/A   Overcast
6:55 PM 28.4 °F 18.0 °F 26.6 °F 93% 29.96 in 3.0 mi North 12.7 mph 19.6 mph N/A   Overcast
7:15 PM 28.4 °F 16.6 °F 24.8 °F 86% 29.97 in 3.0 mi North 16.1 mph 20.7 mph N/A   Overcast
7:35 PM 28.4 °F 17.5 °F 24.8 °F 86% 29.98 in 3.0 mi North 13.8 mph - N/A   Overcast
7:55 PM 28.4 °F 18.0 °F 24.8 °F 86% 29.99 in 2.5 mi North 12.7 mph 18.4 mph 0.01 in   Overcast
8:15 PM 28.4 °F 17.0 °F 24.8 °F 86% 30.00 in 2.0 mi North 15.0 mph 19.6 mph N/A   Overcast
8:35 PM 28.4 °F 17.0 °F 24.8 °F 86% 30.01 in 2.0 mi North 15.0 mph 21.9 mph N/A   Overcast
8:55 PM 28.4 °F 17.0 °F 24.8 °F 86% 30.02 in 2.5 mi North 15.0 mph - N/A   Overcast
9:15 PM 28.4 °F 16.6 °F 24.8 °F 86% 30.03 in 4.0 mi NNW 16.1 mph 20.7 mph N/A   Overcast
9:35 PM 28.4 °F 16.6 °F 24.8 °F 86% 30.04 in 5.0 mi North 16.1 mph 19.6 mph N/A   Overcast
9:55 PM 28.4 °F 16.6 °F 24.8 °F 86% 30.05 in 6.0 mi NNW 16.1 mph 20.7 mph N/A   Overcast
10:15 PM 26.6 °F 14.7 °F 23.0 °F 86% 30.06 in 10.0 mi NNW 15.0 mph 19.6 mph N/A   Mostly Cloudy
10:35 PM 26.6 °F 15.2 °F 23.0 °F 86% 30.06 in 10.0 mi NNW 13.8 mph - N/A   Mostly Cloudy
10:55 PM 26.6 °F 15.7 °F 21.2 °F 80% 30.07 in 10.0 mi NNW 12.7 mph - N/A   Mostly Cloudy
11:15 PM 26.6 °F 15.2 °F 21.2 °F 80% 30.07 in 10.0 mi NNW 13.8 mph - N/A   Overcast
11:35 PM 26.6 °F 16.8 °F 21.2 °F 80% 30.08 in 10.0 mi NNW 10.4 mph - N/A   Overcast
11:55 PM 26.6 °F 15.2 °F 23.0 °F 86% 30.09 in 10.0 mi NNW 13.8 mph - N/A   Overcast